Date String (YYYY-MM-DD hh:mm:ss) UTC,Instrument flags,Ambient pressure (hPa),Sample flow (lpm),Bypass flow (lpm),Sample temperature (°C),Ambient temperature (°C),ASC tube jacket temperature (°C),LED temperature (°C),Box temperature (°C),Sample RH (%),Span deviation,Mass concentration (μg/m³),Mass concentration (μg/m³),Mass concentration (μg/m³)
DateTimeUTC,F1_M11,P_M11,Q1_M11,Q2_M11,T1_M11,T2_M11,T3_M11,T4_M11,T5_M11,U1_M11,ZSPAN_M11,X0_M11,X2_M11,X1_M11
2021-10-06 12:00:00,,0827.6,5.00,0.00,29.7,28.9,00.0,38.8,31.5,13.8,0003.2,0012.47,0004.87,0004.01
2021-10-06 12:01:00,,0827.6,5.01,0.00,29.7,28.9,00.0,38.8,31.5,13.8,0002.7,0012.08,0004.85,0004.00
2021-10-06 12:02:00,,0827.6,5.00,0.00,29.7,28.9,00.0,38.8,31.5,13.7,0002.7,0012.13,0004.84,0003.99
2021-10-06 12:03:00,,0827.6,5.00,0.00,29.8,28.9,00.0,38.8,31.5,13.7,0001.6,0012.00,0004.82,0003.99
2021-10-06 12:04:00,,0827.6,5.01,0.00,29.8,28.9,00.0,38.8,31.5,13.7,0000.0,0011.71,0004.80,0003.99
2021-10-06 12:05:00,,0827.7,5.00,0.00,29.8,29.0,00.0,38.8,31.5,13.7,0000.0,0011.21,0004.76,0003.98
2021-10-06 12:06:00,,0827.7,5.00,0.00,29.8,29.0,00.0,38.8,31.5,13.7,0000.0,0011.09,0004.70,0003.96
2021-10-06 12:07:00,,0827.7,4.98,0.00,29.8,29.0,00.0,38.8,31.5,13.7,0000.0,0010.99,0004.68,0003.96
2021-10-06 12:08:00,,0827.7,5.00,0.00,29.8,29.0,00.0,38.8,31.5,13.7,0000.0,0010.83,0004.68,0003.97
2021-10-06 12:09:00,,0827.7,5.00,0.00,29.8,29.0,00.0,38.9,31.5,13.7,0000.0,0010.54,0004.63,0003.95
2021-10-06 12:10:00,,0827.7,5.02,0.00,29.8,29.0,00.0,38.9,31.6,13.7,0000.0,0010.03,0004.59,0003.95
2021-10-06 12:11:00,,0827.7,5.01,0.00,29.8,29.0,00.0,38.9,31.6,13.7,0000.0,0008.63,0004.57,0003.96
2021-10-06 12:12:00,,0827.7,5.00,0.00,29.8,29.0,00.0,38.9,31.6,13.7,0000.0,0008.73,0004.55,0003.95
2021-10-06 12:13:00,,0827.6,5.00,0.00,29.9,29.0,00.0,38.9,31.6,13.7,0000.0,0009.86,0004.55,0003.95
2021-10-06 12:14:00,,0827.6,5.00,0.00,29.9,29.0,00.0,38.9,31.6,13.6,0000.0,0010.55,0004.53,0003.94
2021-10-06 12:15:00,,0827.6,4.99,0.00,29.9,29.1,00.0,38.9,31.6,13.6,0000.0,0010.34,0004.50,0003.94
2021-10-06 12:16:00,,0827.6,5.00,0.00,29.9,29.1,00.0,38.9,31.6,13.6,0000.0,0011.21,0004.54,0003.94
2021-10-06 12:17:00,,0827.6,5.00,0.00,29.9,29.1,00.0,38.9,31.6,13.6,0000.0,0011.57,0004.61,0003.95
2021-10-06 12:18:00,,0827.6,4.99,0.00,29.9,29.1,00.0,39.0,31.7,13.6,0000.0,0011.69,0004.65,0003.96
2021-10-06 12:19:00,,0827.6,4.99,0.00,29.9,29.1,00.0,39.0,31.7,13.6,0001.0,0011.81,0004.65,0003.96
2021-10-06 12:20:00,,0827.6,5.01,0.00,29.9,29.1,00.0,39.0,31.7,13.6,0002.2,0011.99,0004.71,0003.98
2021-10-06 12:21:00,,0827.6,4.99,0.00,29.9,29.1,00.0,39.0,31.7,13.6,0002.1,0012.59,0004.75,0003.97
2021-10-06 12:22:00,,0827.6,5.01,0.00,29.9,29.1,00.0,39.0,31.7,13.5,0001.8,0013.08,0004.78,0003.98
2021-10-06 12:23:00,,0827.7,4.99,0.00,29.9,29.1,00.0,39.0,31.7,13.5,0002.1,0013.00,0004.81,0003.98
2021-10-06 12:24:00,,0827.7,5.00,0.00,29.9,29.0,00.0,39.0,31.7,13.5,0002.5,0011.94,0004.82,0004.00
2021-10-06 12:25:00,,0827.7,5.00,0.00,29.9,29.0,00.0,39.0,31.7,13.5,0002.9,0012.35,0004.89,0004.01
2021-10-06 12:26:00,,0827.7,5.00,0.00,29.9,29.0,00.0,39.0,31.6,13.5,0002.6,0013.48,0004.93,0004.01
2021-10-06 12:27:00,,0827.7,5.01,0.00,29.9,28.9,00.0,39.0,31.6,13.5,0002.2,0012.96,0004.91,0004.01
2021-10-06 12:28:00,,0827.6,4.99,0.00,29.9,28.9,00.0,39.0,31.6,13.5,0002.4,0012.70,0004.88,0004.01
2021-10-06 12:29:00,,0827.6,5.00,0.00,29.9,29.0,00.0,39.0,31.6,13.5,0002.3,0013.11,0004.89,0004.03
2021-10-06 12:30:00,,0827.6,5.00,0.00,29.9,29.0,00.0,39.0,31.6,13.5,0002.1,0013.33,0004.89,0004.03
2021-10-06 12:31:00,,0827.6,5.01,0.00,29.9,29.0,00.0,39.0,31.6,13.5,0002.2,0013.58,0004.86,0004.02
2021-10-06 12:32:00,,0827.6,5.01,0.00,29.9,29.0,00.0,39.0,31.6,13.5,0002.3,0013.11,0004.83,0004.02
2021-10-06 12:33:00,,0827.7,5.00,0.00,29.9,28.9,00.0,39.0,31.6,13.5,0002.6,0012.29,0004.81,0004.02
2021-10-06 12:34:00,,0827.7,5.00,0.00,29.9,28.9,00.0,39.0,31.6,13.5,0000.0,0012.81,0004.81,0004.01
2021-10-06 12:35:00,,0827.6,4.99,0.00,29.9,28.9,00.0,39.0,31.6,13.5,0000.0,0013.62,0004.82,0004.00
2021-10-06 12:36:00,,0827.5,5.00,0.00,29.9,28.9,00.0,39.0,31.6,13.5,0000.0,0012.41,0004.77,0003.99
2021-10-06 12:37:00,,0827.6,4.99,0.00,29.9,28.9,00.0,39.0,31.6,13.4,0001.4,0011.22,0004.74,0003.98
2021-10-06 12:38:00,,0827.5,5.00,0.00,29.9,28.9,00.0,39.0,31.6,13.4,0001.8,0011.13,0004.78,0003.98
2021-10-06 12:39:00,,0827.5,5.00,0.00,29.9,28.9,00.0,39.0,31.6,13.4,0002.6,0011.15,0004.82,0003.98
2021-10-06 12:40:00,,0827.5,5.00,0.00,29.9,29.0,00.0,39.0,31.6,13.4,0002.5,0010.95,0004.81,0003.97
2021-10-06 12:41:00,,0827.5,5.00,0.00,29.9,29.0,00.0,39.0,31.6,13.4,0000.9,0010.94,0004.79,0003.96
2021-10-06 12:42:00,,0827.5,5.00,0.00,29.9,29.0,00.0,39.0,31.6,13.4,0000.2,0010.66,0004.81,0003.97
2021-10-06 12:43:00,,0827.5,5.00,0.00,29.9,29.0,00.0,39.0,31.6,13.5,0000.7,0010.87,0004.80,0003.98
2021-10-06 12:44:00,,0827.5,5.01,0.00,29.9,29.0,00.0,39.0,31.6,13.5,0001.1,0011.18,0004.77,0003.98
2021-10-06 12:45:00,,0827.5,5.00,0.00,29.9,28.9,00.0,39.0,31.6,13.5,0001.6,0011.39,0004.75,0003.98
2021-10-06 12:46:00,,0827.5,4.99,0.00,29.9,28.9,00.0,39.0,31.6,13.5,0002.2,0010.79,0004.80,0004.00
2021-10-06 12:47:00,,0827.4,5.00,0.00,29.9,29.0,00.0,39.0,31.6,13.5,0002.4,0011.31,0004.81,0004.01
2021-10-06 12:48:00,,0827.4,5.01,0.00,29.9,29.0,00.0,39.0,31.6,13.5,0001.4,0012.10,0004.81,0004.02
2021-10-06 12:49:00,,0827.4,5.01,0.00,29.9,29.0,00.0,39.0,31.6,13.5,0000.0,0012.25,0004.76,0004.01
2021-10-06 12:50:00,,0827.4,4.99,0.00,29.9,29.0,00.0,39.0,31.6,13.4,0000.0,0012.01,0004.74,0003.99
2021-10-06 12:51:00,,0827.4,4.99,0.00,29.9,29.0,00.0,39.0,31.6,13.3,0000.0,0012.47,0004.77,0003.99
2021-10-06 12:52:00,,0827.5,5.01,0.00,29.9,29.0,00.0,39.0,31.6,13.3,0000.0,0012.32,0004.83,0003.99
2021-10-06 12:53:00,,0827.5,5.01,0.00,29.9,28.9,00.0,39.0,31.6,13.3,0000.0,0012.20,0004.82,0003.98
2021-10-06 12:54:00,,0827.5,4.99,0.00,29.9,28.9,00.0,39.0,31.6,13.3,0000.0,0011.94,0004.81,0003.96
2021-10-06 12:55:00,,0827.5,5.02,0.00,29.9,28.9,00.0,39.0,31.6,13.3,0000.0,0011.57,0004.80,0003.95
2021-10-06 12:56:00,,0827.5,5.00,0.00,29.9,28.9,00.0,39.0,31.6,13.3,0000.0,0010.99,0004.80,0003.95
2021-10-06 12:57:00,,0827.5,4.99,0.00,29.8,28.9,00.0,39.0,31.6,13.5,0000.0,0011.02,0004.75,0003.93
2021-10-06 12:58:00,,0827.6,4.99,0.00,29.8,28.9,00.0,39.0,31.6,13.6,0000.0,0010.85,0004.76,0003.92
2021-10-06 12:59:00,,0827.6,5.00,0.00,29.8,28.9,00.0,39.0,31.6,13.7,0000.0,0010.48,0004.78,0003.92
